Погода в Октябрьском

Россия / Тульская область     54°20′18″N   37°33′36″E
темп.,
°C
ветер,
м/с
пор.,
м/с
влажн.,
%
обл.,
%
осадки,
мм/ч
давл.,
гПа
погр.,
м
8 августа, пн
пн800:00+17ссз3889100 0.0 1020236
03:00+17с3889100 0.1 1020243
06:00+18ссв268778 0.2 1020188
09:00+22ссв337149 0.2 1020518
12:00+26всв22536 0.0 10201035
15:00+27в234514 0.0 10191881
18:00+26ссв435510 0.1 1019662
21:00+19св488898 3.8 1020236
9 августа, вт
вт900:00+16ссв3595100 2.1 1020114
03:00+16ссз2497100 6.1 1020126
06:00+16с2497100 3.6 1020174
09:00+18с3390100 5.6 1020394
12:00+19с4384100 0.3 1020584
15:00+19ссз458592 0.9 1020549
18:00+18ссз4689100 0.3 1020445
21:00+16с369188 0.3 1020271
10 августа, ср
ср1000:00+15ссв3696100 0.0 1020248
03:00+15с3595100 0.1 1020271
06:00+15с3696100 0.2 1020308
09:00+16с4794100 0.3 1021465
12:00+17ссв5786100 0.1 1021587
15:00+19ссв576665 0.1 1021999
18:00+19св3766100 0.0 1022664
21:00+15ссв3483100 0.0 102276
11 августа, чт
чт1100:00+15ссв4117790 0.0 1023254
03:00+14св41076100 0.0 1023232
06:00+13св397197 0.0 1024198
09:00+17св47606 0.0 1025392
12:00+22св44500 0.0 10241259
15:00+23св33460 0.0 10241497
18:00+22св34530 0.0 1023769
21:00+16св34630 0.0 102458
12 августа, пт
пт1200:00+15св23590 0.0 102438
03:00+14св33620 0.0 102549
06:00+13всв24670 0.0 102664
09:00+20всв34500 0.0 1026390
12:00+24всв33420 0.0 10251013
15:00+26всв22400 0.0 10231227
18:00+25св23491 0.0 1023301
21:00+19св35645 0.0 102368